C/2022 E3 ( ZTF )

Japanese version
Home page
Updated on July 4, 2022

---------------------------------------------------------------------

* Profile

Discovery Date March 2, 2022
Magnitude 17.2 mag
Discoverer Zwicky Transient Facility (ZTF)

* Pictures

* Orbital Elements

Epoch 2022 Aug. 9.0 TT = JDT 2459800.5                                          
T 2023 Jan. 12.78819 TT                                 Rudenko                 
q   1.1122649            (2000.0)            P               Q                  
z  -0.0002468      Peri.  145.81445     -0.60062558     -0.07339913             
 +/-0.0000056      Node   302.55385     +0.33752809     +0.87941685             
e   1.0002746      Incl.  109.16846     +0.72479218     -0.47036005             
From 1098 observations 2021 Oct. 25-2022 June 27, mean residual 0".4.           

* Finding Charts

* Magnitudes Graph

        m1 = -2.0 + 5 log d + 25   log r  [    ,-288]  (             - 2022 Mar. 30)
        m1 =  7.0 + 5 log d + 10.0 log r  [-288,    ]  (2022 Mar. 30 -             )

---------------------------------------------------------------------

The orbital elements are published on M.P.E.C. 2022-M88.
The charts are made with StellaNavigator Ver.10 (AstroArts).
The magnitudes graphs are made with Comet for Windows.

---------------------------------------------------------------------

Copyright(C) Seiichi Yoshida (comet@aerith.net). All rights reserved.